ARG1895 SAWH-SAWC

Flight info

Callsign ARG1895
Flight time 1h 4m
Altitude 28000
Route GRA2A GRA UW42 GAL UW52 DEVIS DEVIS2Q
Aircraft B738/M-SDE2E3FGHIRWXY/LB1

Departure

Time 2026-04-16 14:53
Airport Ushuaia - Malvinas Argentinas International Airport (SAWH)

Arrival

Time 2026-04-16 15:58
Airport El Calafate - Commander Armando Tola International Airport (SAWC)
Time Latitude Longitude Altitude Speed Heading
2026-04-16 14:33 -54.84028 -68.31252 86 ft 0 kts 20°
2026-04-16 14:44 -54.84030 -68.31253 82 ft 1 kts 21°
2026-04-16 14:44 -54.84044 -68.31264 82 ft 3 kts 18°
2026-04-16 14:44 -54.84064 -68.31271 82 ft 3 kts
2026-04-16 14:44 -54.84082 -68.31273 85 ft 3 kts 336°
2026-04-16 14:45 -54.84090 -68.31262 84 ft 1 kts 292°
2026-04-16 14:45 -54.84095 -68.31240 82 ft 3 kts 272°
2026-04-16 14:45 -54.84095 -68.31215 82 ft 1 kts 267°
2026-04-16 14:45 -54.84095 -68.31213 82 ft 0 kts 267°
2026-04-16 14:47 -54.84096 -68.31228 84 ft 3 kts 267°
2026-04-16 14:47 -54.84105 -68.31304 86 ft 9 kts 238°
2026-04-16 14:48 -54.84173 -68.31329 82 ft 11 kts 176°
2026-04-16 14:48 -54.84244 -68.31322 85 ft 10 kts 177°
2026-04-16 14:48 -54.84311 -68.31316 86 ft 10 kts 177°
2026-04-16 14:48 -54.84377 -68.31318 86 ft 8 kts 201°
2026-04-16 14:49 -54.84395 -68.31404 86 ft 8 kts 261°
2026-04-16 14:49 -54.84405 -68.31509 83 ft 10 kts 263°
2026-04-16 14:49 -54.84373 -68.31651 83 ft 15 kts 286°
2026-04-16 14:49 -54.84393 -68.31760 86 ft 7 kts 180°
2026-04-16 14:50 -54.84413 -68.31690 87 ft 6 kts 91°
2026-04-16 14:50 -54.84411 -68.31645 82 ft 0 kts 85°
2026-04-16 14:51 -54.84411 -68.31644 82 ft 1 kts 85°
2026-04-16 14:51 -54.84404 -68.31453 87 ft 47 kts 86°
2026-04-16 14:51 -54.84366 -68.30471 81 ft 116 kts 86°
2026-04-16 14:51 -54.84294 -68.28739 179 ft 163 kts 86°
2026-04-16 14:53 -54.86725 -68.11862 3542 ft 281 kts 104°
2026-04-16 14:53 -54.87305 -68.08584 4372 ft 285 kts 104°
2026-04-16 14:54 -54.87881 -68.05294 5307 ft 285 kts 105°
2026-04-16 14:54 -54.88457 -68.01973 6177 ft 289 kts 105°
2026-04-16 14:54 -54.89036 -67.98603 7033 ft 291 kts 104°
2026-04-16 14:54 -54.89617 -67.95186 7783 ft 298 kts 104°
2026-04-16 14:55 -54.90210 -67.91688 8527 ft 304 kts 104°
2026-04-16 14:55 -54.90769 -67.88073 9072 ft 318 kts 95°
2026-04-16 14:55 -54.90607 -67.84163 9252 ft 334 kts 69°
2026-04-16 14:55 -54.89552 -67.80481 9453 ft 350 kts 49°
2026-04-16 14:56 -54.87797 -67.77560 9719 ft 360 kts 30°
2026-04-16 14:56 -54.85638 -67.75273 10219 ft 368 kts 26°
2026-04-16 14:56 -54.83275 -67.73673 10956 ft 361 kts
2026-04-16 14:56 -54.80799 -67.73439 11787 ft 356 kts 356°
2026-04-16 14:57 -54.78328 -67.73467 12532 ft 355 kts 355°
2026-04-16 14:57 -54.75854 -67.73533 13296 ft 356 kts 354°
2026-04-16 14:57 -54.73369 -67.73601 13958 ft 359 kts 355°
2026-04-16 14:57 -54.70865 -67.73659 14681 ft 360 kts 355°
2026-04-16 14:58 -54.68350 -67.73706 15427 ft 361 kts 355°
2026-04-16 14:58 -54.63307 -67.73774 16741 ft 365 kts 355°
2026-04-16 14:58 -54.60758 -67.73803 17337 ft 366 kts 354°
2026-04-16 14:59 -54.58207 -67.73831 17935 ft 368 kts 354°
2026-04-16 14:59 -54.55642 -67.73857 18511 ft 369 kts 354°
2026-04-16 14:59 -54.53070 -67.73883 19033 ft 371 kts 354°
2026-04-16 14:59 -54.50472 -67.73909 19502 ft 375 kts 354°
2026-04-16 15:00 -54.47862 -67.73934 20016 ft 376 kts 354°
2026-04-16 15:00 -54.45272 -67.73958 20526 ft 377 kts 354°
2026-04-16 15:00 -54.42643 -67.73983 21008 ft 378 kts 354°
2026-04-16 15:00 -54.40000 -67.74008 21440 ft 381 kts 354°
2026-04-16 15:01 -54.37343 -67.74034 21875 ft 382 kts 354°
2026-04-16 15:01 -54.34676 -67.74060 22270 ft 384 kts 354°
2026-04-16 15:01 -54.31992 -67.74086 22694 ft 385 kts 354°
2026-04-16 15:01 -54.29311 -67.74111 23113 ft 386 kts 354°
2026-04-16 15:02 -54.27527 -67.74128 23371 ft 387 kts 354°
2026-04-16 15:02 -54.23943 -67.74162 23857 ft 389 kts 354°
2026-04-16 15:02 -54.21236 -67.74188 24211 ft 390 kts 354°
2026-04-16 15:02 -54.19394 -67.74206 24434 ft 391 kts 354°
2026-04-16 15:03 -54.16661 -67.74233 24734 ft 393 kts 354°
2026-04-16 15:03 -54.13952 -67.74258 25058 ft 394 kts 354°
2026-04-16 15:03 -54.11202 -67.74284 25363 ft 396 kts 354°
2026-04-16 15:03 -54.08440 -67.74311 25632 ft 398 kts 354°
2026-04-16 15:04 -54.05659 -67.74337 25910 ft 400 kts 354°
2026-04-16 15:04 -54.02867 -67.74364 26189 ft 401 kts 354°
2026-04-16 15:04 -54.00071 -67.74391 26421 ft 403 kts 354°
2026-04-16 15:04 -53.97258 -67.74417 26654 ft 405 kts 354°
2026-04-16 15:05 -53.94467 -67.74443 26897 ft 406 kts 354°
2026-04-16 15:05 -53.91640 -67.74469 27125 ft 407 kts 354°
2026-04-16 15:05 -53.88814 -67.74495 27432 ft 405 kts 354°
2026-04-16 15:05 -53.85993 -67.74520 27797 ft 403 kts 354°
2026-04-16 15:06 -53.83193 -67.74545 28112 ft 402 kts 354°
2026-04-16 15:06 -53.80398 -67.74571 28445 ft 401 kts 354°
2026-04-16 15:06 -53.77654 -67.74955 28842 ft 391 kts 344°
2026-04-16 15:06 -53.75083 -67.76311 29221 ft 384 kts 334°
2026-04-16 15:07 -53.72689 -67.78156 29543 ft 383 kts 333°
2026-04-16 15:07 -53.70280 -67.80048 29833 ft 382 kts 333°
2026-04-16 15:07 -53.67869 -67.81944 30156 ft 381 kts 333°
2026-04-16 15:07 -53.65473 -67.83817 30497 ft 379 kts 333°
2026-04-16 15:08 -53.63079 -67.85676 30784 ft 378 kts 333°
2026-04-16 15:08 -53.60689 -67.87522 31022 ft 378 kts 333°
2026-04-16 15:08 -53.58291 -67.89366 31270 ft 378 kts 333°
2026-04-16 15:08 -53.55902 -67.91197 31563 ft 377 kts 333°
2026-04-16 15:09 -53.53520 -67.93019 31865 ft 375 kts 333°
2026-04-16 15:09 -53.51140 -67.94836 32114 ft 375 kts 333°
2026-04-16 15:09 -53.48764 -67.96646 32345 ft 375 kts 333°
2026-04-16 15:09 -53.46417 -67.98433 32597 ft 374 kts 333°
2026-04-16 15:10 -53.44045 -68.00236 32813 ft 374 kts 333°
2026-04-16 15:10 -53.41673 -68.02037 33046 ft 374 kts 333°
2026-04-16 15:10 -53.39311 -68.03829 33366 ft 371 kts 333°
2026-04-16 15:10 -53.36964 -68.05606 33599 ft 371 kts 333°
2026-04-16 15:11 -53.34605 -68.07391 33785 ft 371 kts 333°
2026-04-16 15:11 -53.32249 -68.09171 34019 ft 370 kts 333°
2026-04-16 15:11 -53.29907 -68.10939 34271 ft 369 kts 333°
2026-04-16 15:11 -53.27565 -68.12705 34489 ft 369 kts 333°
2026-04-16 15:12 -53.25221 -68.14470 34653 ft 369 kts 333°
2026-04-16 15:12 -53.22877 -68.16233 34830 ft 370 kts 333°
2026-04-16 15:12 -53.20539 -68.17989 35040 ft 369 kts 333°
2026-04-16 15:12 -53.18195 -68.19749 35248 ft 368 kts 333°
2026-04-16 15:13 -53.15883 -68.21482 35320 ft 370 kts 333°
2026-04-16 15:13 -53.11166 -68.25012 35329 ft 371 kts 333°
2026-04-16 15:14 -53.06481 -68.28507 35333 ft 368 kts 333°
2026-04-16 15:14 -53.01817 -68.31980 35339 ft 366 kts 333°
2026-04-16 15:15 -52.97167 -68.35435 35346 ft 365 kts 333°
2026-04-16 15:15 -52.92546 -68.38859 35368 ft 366 kts 333°
2026-04-16 15:16 -52.87887 -68.42306 35363 ft 367 kts 333°
2026-04-16 15:16 -52.83180 -68.45778 35358 ft 369 kts 333°
2026-04-16 15:17 -52.78514 -68.49211 35349 ft 370 kts 333°
2026-04-16 15:17 -52.73804 -68.52670 35362 ft 371 kts 333°
2026-04-16 15:18 -52.69081 -68.56134 35365 ft 372 kts 333°
2026-04-16 15:18 -52.64356 -68.59590 35360 ft 372 kts 333°
2026-04-16 15:19 -52.59615 -68.63050 35364 ft 373 kts 333°
2026-04-16 15:19 -52.54870 -68.66508 35367 ft 373 kts 333°
2026-04-16 15:20 -52.50125 -68.69956 35370 ft 373 kts 333°
2026-04-16 15:20 -52.45398 -68.73381 35374 ft 373 kts 333°
2026-04-16 15:21 -52.40648 -68.76813 35376 ft 373 kts 333°
2026-04-16 15:21 -52.35897 -68.80242 35376 ft 373 kts 333°
2026-04-16 15:22 -52.31153 -68.83657 35373 ft 372 kts 333°
2026-04-16 15:22 -52.26409 -68.87064 35376 ft 372 kts 333°
2026-04-16 15:23 -52.21670 -68.90461 35380 ft 372 kts 333°
2026-04-16 15:23 -52.16969 -68.93820 35384 ft 371 kts 333°
2026-04-16 15:24 -52.12237 -68.97193 35386 ft 370 kts 333°
2026-04-16 15:24 -52.07516 -69.00551 35385 ft 370 kts 333°
2026-04-16 15:25 -52.02805 -69.03896 35385 ft 369 kts 333°
2026-04-16 15:25 -51.98097 -69.07230 35378 ft 369 kts 334°
2026-04-16 15:26 -51.93412 -69.10540 35385 ft 369 kts 334°
2026-04-16 15:26 -51.88700 -69.13862 35380 ft 369 kts 334°
2026-04-16 15:27 -51.83984 -69.17178 35385 ft 369 kts 334°
2026-04-16 15:27 -51.79263 -69.20488 35386 ft 369 kts 334°
2026-04-16 15:28 -51.74548 -69.23792 35388 ft 369 kts 334°
2026-04-16 15:28 -51.69826 -69.27093 35384 ft 369 kts 334°
2026-04-16 15:29 -51.65151 -69.30406 35382 ft 368 kts 329°
2026-04-16 15:29 -51.60985 -69.35141 35382 ft 366 kts 320°
2026-04-16 15:30 -51.57438 -69.41022 35383 ft 368 kts 310°
2026-04-16 15:30 -51.54363 -69.47598 35388 ft 368 kts 310°
2026-04-16 15:31 -51.51297 -69.54164 35389 ft 367 kts 310°
2026-04-16 15:31 -51.48217 -69.60717 35386 ft 367 kts 310°
2026-04-16 15:32 -51.45134 -69.67248 35385 ft 367 kts 310°
2026-04-16 15:32 -51.42066 -69.73725 35386 ft 366 kts 310°
2026-04-16 15:33 -51.38978 -69.80227 35387 ft 366 kts 310°
2026-04-16 15:33 -51.35884 -69.86724 35383 ft 366 kts 310°
2026-04-16 15:33 -51.34330 -69.89981 35010 ft 373 kts 310°
2026-04-16 15:34 -51.32763 -69.93261 34489 ft 369 kts 310°
2026-04-16 15:34 -51.31207 -69.96520 33837 ft 368 kts 310°
2026-04-16 15:34 -51.29649 -69.99774 33131 ft 369 kts 310°
2026-04-16 15:34 -51.28107 -70.02990 32422 ft 370 kts 311°
2026-04-16 15:35 -51.26519 -70.06298 31669 ft 371 kts 311°
2026-04-16 15:35 -51.24963 -70.09533 30917 ft 372 kts 311°
2026-04-16 15:35 -51.23382 -70.12818 30129 ft 374 kts 311°
2026-04-16 15:35 -51.21794 -70.16112 29535 ft 371 kts 311°
2026-04-16 15:36 -51.20227 -70.19361 28936 ft 368 kts 311°
2026-04-16 15:36 -51.18672 -70.22582 28370 ft 365 kts 311°
2026-04-16 15:36 -51.17132 -70.25770 27803 ft 361 kts 311°
2026-04-16 15:36 -51.15605 -70.28924 27239 ft 358 kts 311°
2026-04-16 15:37 -51.14087 -70.32055 26665 ft 355 kts 311°
2026-04-16 15:37 -51.12581 -70.35159 26117 ft 352 kts 311°
2026-04-16 15:37 -51.11084 -70.38238 25560 ft 350 kts 311°
2026-04-16 15:37 -51.09620 -70.41248 25007 ft 348 kts 311°
2026-04-16 15:38 -51.08141 -70.44285 24456 ft 346 kts 312°
2026-04-16 15:38 -51.06674 -70.47294 23904 ft 343 kts 312°
2026-04-16 15:38 -51.05201 -70.50277 23336 ft 341 kts 313°
2026-04-16 15:38 -51.03643 -70.53118 22700 ft 340 kts 315°
2026-04-16 15:39 -51.02049 -70.55876 22149 ft 337 kts 316°
2026-04-16 15:39 -51.00463 -70.58600 21628 ft 334 kts 315°
2026-04-16 15:39 -50.98897 -70.61299 21086 ft 331 kts 315°
2026-04-16 15:39 -50.97368 -70.63947 20566 ft 329 kts 315°
2026-04-16 15:40 -50.95832 -70.66618 20041 ft 326 kts 315°
2026-04-16 15:40 -50.94314 -70.69262 19532 ft 323 kts 315°
2026-04-16 15:40 -50.92803 -70.71893 19009 ft 320 kts 315°
2026-04-16 15:40 -50.91301 -70.74505 18497 ft 318 kts 315°
2026-04-16 15:41 -50.89815 -70.77087 17982 ft 316 kts 315°
2026-04-16 15:41 -50.88331 -70.79658 17467 ft 314 kts 315°
2026-04-16 15:41 -50.86861 -70.82199 16950 ft 312 kts 314°
2026-04-16 15:41 -50.85415 -70.84695 16461 ft 310 kts 314°
2026-04-16 15:42 -50.83939 -70.87241 15948 ft 309 kts 314°
2026-04-16 15:42 -50.82511 -70.89703 15454 ft 307 kts 314°
2026-04-16 15:42 -50.81070 -70.92185 14945 ft 306 kts 314°
2026-04-16 15:42 -50.79635 -70.94656 14450 ft 303 kts 313°
2026-04-16 15:43 -50.78209 -70.97106 13958 ft 302 kts 313°
2026-04-16 15:43 -50.76791 -70.99542 13475 ft 301 kts 313°
2026-04-16 15:43 -50.75378 -71.01967 12991 ft 300 kts 313°
2026-04-16 15:43 -50.73967 -71.04384 12508 ft 299 kts 313°
2026-04-16 15:44 -50.72561 -71.06790 12026 ft 298 kts 312°
2026-04-16 15:44 -50.71151 -71.09204 11510 ft 299 kts 312°
2026-04-16 15:44 -50.69748 -71.11604 11051 ft 297 kts 312°
2026-04-16 15:44 -50.68346 -71.14000 10562 ft 297 kts 312°
2026-04-16 15:45 -50.66944 -71.16393 10289 ft 294 kts 312°
2026-04-16 15:45 -50.65563 -71.18747 10093 ft 290 kts 312°
2026-04-16 15:45 -50.64191 -71.21083 9966 ft 291 kts 312°
2026-04-16 15:45 -50.62819 -71.23417 9828 ft 287 kts 312°
2026-04-16 15:46 -50.61503 -71.25655 9697 ft 277 kts 312°
2026-04-16 15:46 -50.60216 -71.27843 9575 ft 267 kts 312°
2026-04-16 15:46 -50.58972 -71.29957 9457 ft 259 kts 312°
2026-04-16 15:46 -50.57769 -71.32001 9324 ft 251 kts 312°
2026-04-16 15:47 -50.56583 -71.34014 9042 ft 249 kts 312°
2026-04-16 15:47 -50.55406 -71.36007 8765 ft 248 kts 312°
2026-04-16 15:47 -50.54235 -71.37985 8467 ft 246 kts 312°
2026-04-16 15:47 -50.53062 -71.39966 8102 ft 249 kts 312°
2026-04-16 15:48 -50.51885 -71.41950 7820 ft 248 kts 312°
2026-04-16 15:48 -50.50715 -71.43925 7515 ft 246 kts 312°
2026-04-16 15:48 -50.49550 -71.45889 7258 ft 245 kts 312°
2026-04-16 15:48 -50.48391 -71.47843 6994 ft 243 kts 312°
2026-04-16 15:49 -50.47244 -71.49777 6749 ft 240 kts 313°
2026-04-16 15:49 -50.46110 -71.51686 6503 ft 237 kts 313°
2026-04-16 15:49 -50.44986 -71.53578 6260 ft 237 kts 313°
2026-04-16 15:49 -50.43882 -71.55435 6063 ft 233 kts 313°
2026-04-16 15:50 -50.42772 -71.57296 6014 ft 229 kts 313°
2026-04-16 15:50 -50.41709 -71.59081 6000 ft 222 kts 314°
2026-04-16 15:50 -50.40671 -71.60824 5930 ft 216 kts 314°
2026-04-16 15:50 -50.39648 -71.62537 5726 ft 214 kts 313°
2026-04-16 15:51 -50.38625 -71.64249 5538 ft 217 kts 313°
2026-04-16 15:51 -50.37585 -71.65983 5356 ft 219 kts 314°
2026-04-16 15:51 -50.36893 -71.67139 5227 ft 221 kts 314°
2026-04-16 15:51 -50.35840 -71.68901 5021 ft 221 kts 314°
2026-04-16 15:52 -50.34179 -71.70677 4754 ft 218 kts 335°
2026-04-16 15:52 -50.32817 -71.71636 4571 ft 209 kts 334°
2026-04-16 15:52 -50.31535 -71.72554 4343 ft 196 kts 334°
2026-04-16 15:52 -50.30324 -71.73432 4162 ft 188 kts 334°
2026-04-16 15:53 -50.29544 -71.74000 4071 ft 187 kts 334°
2026-04-16 15:53 -50.28360 -71.74860 3908 ft 187 kts 334°
2026-04-16 15:53 -50.27221 -71.75717 3772 ft 176 kts 327°
2026-04-16 15:53 -50.26552 -71.77198 3558 ft 171 kts 279°
2026-04-16 15:54 -50.26570 -71.79058 3447 ft 171 kts 272°
2026-04-16 15:54 -50.26623 -71.80920 3283 ft 168 kts 270°
2026-04-16 15:54 -50.26710 -71.82716 3219 ft 169 kts 269°
2026-04-16 15:54 -50.26819 -71.84536 3017 ft 167 kts 268°
2026-04-16 15:55 -50.26917 -71.86288 2782 ft 157 kts 269°
2026-04-16 15:55 -50.27009 -71.87948 2589 ft 151 kts 268°
2026-04-16 15:55 -50.27101 -71.89569 2397 ft 148 kts 268°
2026-04-16 15:55 -50.27194 -71.91172 2197 ft 148 kts 267°
2026-04-16 15:56 -50.27287 -71.92771 2005 ft 146 kts 266°
2026-04-16 15:56 -50.27378 -71.94338 1806 ft 143 kts 265°
2026-04-16 15:56 -50.27469 -71.95888 1625 ft 143 kts 265°
2026-04-16 15:56 -50.27560 -71.97451 1430 ft 145 kts 265°
2026-04-16 15:57 -50.27652 -71.99023 1245 ft 145 kts 265°
2026-04-16 15:57 -50.27742 -72.00591 1032 ft 145 kts 265°
2026-04-16 15:57 -50.27833 -72.02148 844 ft 145 kts 265°
2026-04-16 15:57 -50.27923 -72.03718 659 ft 143 kts 265°
2026-04-16 15:58 -50.28008 -72.05122 643 ft 105 kts 264°
2026-04-16 15:58 -50.28055 -72.05918 641 ft 42 kts 264°
2026-04-16 15:58 -50.28120 -72.06227 642 ft 20 kts 234°
2026-04-16 15:58 -50.28195 -72.06382 641 ft 16 kts 227°
2026-04-16 15:59 -50.28309 -72.06255 640 ft 12 kts 86°
2026-04-16 15:59 -50.28302 -72.06135 640 ft 11 kts 84°
2026-04-16 15:59 -50.28295 -72.06025 640 ft 10 kts 85°
2026-04-16 16:00 -50.28290 -72.05918 640 ft 10 kts 85°
2026-04-16 16:00 -50.28284 -72.05814 641 ft 9 kts 85°
2026-04-16 16:00 -50.28278 -72.05709 640 ft 10 kts 85°
2026-04-16 16:00 -50.28270 -72.05576 642 ft 14 kts 84°
2026-04-16 16:01 -50.28260 -72.05428 640 ft 11 kts 84°
2026-04-16 16:01 -50.28297 -72.05391 640 ft 5 kts 169°
2026-04-16 16:01 -50.28328 -72.05387 640 ft 3 kts 175°
2026-04-16 16:01 -50.28338 -72.05386 640 ft 1 kts 175°
2026-04-16 16:02 -50.28339 -72.05386 640 ft 0 kts 176°